TimeCST,TemperatureF,Dew PointF,Humidity,Sea Level PressureIn,VisibilityMPH,Wind Direction,Wind SpeedMPH,Gust SpeedMPH,PrecipitationIn,Events,Conditions,WindDirDegrees,DateUTC
12:53 AM,32.0,28.0,85,30.18,10.0,SE,4.6,-,N/A,,Clear,130,2013-11-03 05:53:00
1:53 AM,32.0,28.9,88,30.19,10.0,SE,4.6,-,N/A,,Clear,130,2013-11-03 06:53:00
1:53 AM,33.1,28.9,85,30.20,10.0,ESE,5.8,-,N/A,,Clear,120,2013-11-03 07:53:00
2:53 AM,33.1,30.0,89,30.21,10.0,ESE,5.8,-,N/A,,Clear,120,2013-11-03 08:53:00
3:53 AM,32.0,28.0,85,30.22,10.0,ESE,6.9,-,N/A,,Mostly Cloudy,120,2013-11-03 09:53:00
4:53 AM,30.9,28.0,89,30.22,10.0,ESE,4.6,-,N/A,,Partly Cloudy,110,2013-11-03 10:53:00
5:53 AM,30.9,27.0,85,30.23,10.0,ESE,8.1,-,N/A,,Clear,120,2013-11-03 11:53:00
6:53 AM,30.9,27.0,85,30.24,10.0,ESE,8.1,-,N/A,,Overcast,120,2013-11-03 12:53:00
7:53 AM,33.1,28.0,82,30.25,10.0,ESE,8.1,-,N/A,,Clear,120,2013-11-03 13:53:00
8:53 AM,37.9,30.0,73,30.25,10.0,ESE,5.8,-,N/A,,Clear,120,2013-11-03 14:53:00
9:53 AM,45.0,32.0,60,30.23,10.0,SSE,8.1,-,N/A,,Clear,160,2013-11-03 15:53:00
10:53 AM,48.9,30.9,50,30.22,10.0,South,12.7,20.7,N/A,,Clear,170,2013-11-03 16:53:00
11:53 AM,52.0,32.0,47,30.19,10.0,SSE,16.1,-,N/A,,Clear,160,2013-11-03 17:53:00
12:53 PM,54.0,32.0,43,30.15,10.0,SSE,16.1,-,N/A,,Clear,160,2013-11-03 18:53:00
1:53 PM,54.0,32.0,43,30.12,10.0,SSE,19.6,27.6,N/A,,Clear,150,2013-11-03 19:53:00
2:53 PM,53.1,32.0,45,30.10,10.0,SE,16.1,-,N/A,,Clear,140,2013-11-03 20:53:00
3:53 PM,52.0,30.9,45,30.10,10.0,SSE,18.4,24.2,N/A,,Clear,160,2013-11-03 21:53:00
4:53 PM,50.0,30.0,46,30.08,10.0,SE,15.0,21.9,N/A,,Clear,140,2013-11-03 22:53:00
5:53 PM,48.9,30.0,48,30.08,10.0,SE,17.3,24.2,N/A,,Clear,140,2013-11-03 23:53:00
6:53 PM,48.9,30.9,50,30.09,10.0,SE,19.6,27.6,N/A,,Clear,140,2013-11-04 00:53:00
7:53 PM,48.9,32.0,52,30.07,10.0,SSE,21.9,34.5,N/A,,Clear,150,2013-11-04 01:53:00
8:53 PM,48.9,33.1,54,30.07,10.0,SSE,20.7,28.8,N/A,,Clear,150,2013-11-04 02:53:00
9:53 PM,48.9,33.1,54,30.07,10.0,SSE,12.7,24.2,N/A,,Clear,150,2013-11-04 03:53:00
10:53 PM,48.9,33.1,54,30.08,10.0,SSE,16.1,23.0,N/A,,Clear,160,2013-11-04 04:53:00